West Palm Beach, FL

7:28 AM EDT on October 14, 2019 (GMT -0400)
Palm Beach International

Weather History for KPBI - May, 2019

Change the Weather History Date:

Friday, May 31, 2019

  Actual Average Record
Temperature  
Mean Temperature 86 °F 80 °F  
Max Temperature 91 °F 87 °F 94 °F (2004)
Min Temperature 80 °F 73 °F 62 °F (1971)
Degree Days  
Heating Degree Days 0 0  
Month to date heating degree days 0 0  
Since 1 July heating degree days 144 233  
Cooling Degree Days 21 15  
Month to date cooling degree days 476 414  
Year to date cooling degree days 1401 1109  
Growing Degree Days 36 (Base 50)    
Moisture  
Dew Point 72 °F    
Average Humidity 68    
Maximum Humidity 79    
Minimum Humidity 56    
Precipitation  
Precipitation 0.00 in 0.22 in 2.25 in (1902)
Month to date precipitation 5.29 4.51  
Year to date precipitation 21.01 18.71  
Snow  
Snow 0.00 in - - ()
Month to date snowfall 0.0  
Since 1 July snowfall 0.0  
Snow Depth 0.00 in    
Sea Level Pressure  
Sea Level Pressure 29.99 in    
Wind  
Wind Speed 11 mph (SE)    
Max Wind Speed 18 mph    
Max Gust Speed 25 mph    
Visibility 10 miles    
Events      
T = Trace of Precipitation, MM = Missing Value Source: NWS Daily Summary

Daily Weather History Graph

Daily Weather History Graph

Search for Another Location

Airport or City:

Astronomy

May. 31, 2019 Rise Set
Actual Time 6:27 AM EDT 8:09 PM EDT
Civil Twilight 6:01 AM EDT 8:34 PM EDT
Nautical Twilight 5:30 AM EDT 9:06 PM EDT
Astronomical Twilight 4:57 AM EDT 9:38 PM EDT
Moon 4:37 AM EDT (5/31) 5:36 PM EDT (5/31)
Length of Visible Light 14h 33m
Length of Day
13h 41m
Waning Crescent, 9% of the Moon is Illuminated
May 31
Waning Crescent
Jun 3
New
Jun 10
First Quarter
Jun 17
Full
Jun 25
Last Quarter

Hourly Weather History & Observations

Time (EDT) Temp. Heat Index Dew Point Humidity Pressure Visibility Wind Dir Wind Speed Gust Speed Precip Events Conditions
12:53 AM 81.0 °F 85.8 °F 73.0 °F 77% 30.00 in 10.0 mi SE 10.4 mph - N/A   Partly Cloudy
1:53 AM 80.1 °F 84.2 °F 73.0 °F 79% 29.98 in 10.0 mi SE 9.2 mph - N/A   Scattered Clouds
2:53 AM 80.1 °F 84.2 °F 73.0 °F 79% 29.96 in 10.0 mi SE 10.4 mph - N/A   Partly Cloudy
3:53 AM 80.1 °F 84.2 °F 73.0 °F 79% 29.97 in 10.0 mi SE 8.1 mph - N/A   Partly Cloudy
4:53 AM 81.0 °F 85.8 °F 73.0 °F 77% 29.99 in 10.0 mi SE 9.2 mph - N/A   Scattered Clouds
5:53 AM 80.1 °F 84.2 °F 73.0 °F 79% 29.99 in 10.0 mi SE 6.9 mph - N/A   Scattered Clouds
6:53 AM 81.0 °F 86.2 °F 73.9 °F 79% 30.01 in 10.0 mi SSE 8.1 mph - N/A   Scattered Clouds
7:53 AM 82.0 °F 87.4 °F 73.0 °F 74% 30.02 in 10.0 mi South 5.8 mph - N/A   Scattered Clouds
8:53 AM 82.9 °F 88.0 °F 72.0 °F 69% 30.04 in 10.0 mi South 8.1 mph - N/A   Scattered Clouds
9:53 AM 84.0 °F 89.0 °F 71.1 °F 65% 30.04 in 10.0 mi South 9.2 mph - N/A   Scattered Clouds
10:53 AM 88.0 °F 93.8 °F 71.1 °F 57% 30.04 in 10.0 mi SE 10.4 mph - N/A   Mostly Cloudy
11:53 AM 89.1 °F 95.0 °F 71.1 °F 55% 30.03 in 10.0 mi SE 13.8 mph 18.4 mph N/A   Scattered Clouds
12:53 PM 89.1 °F 95.0 °F 71.1 °F 55% 30.02 in 10.0 mi SE 12.7 mph - N/A   Scattered Clouds
1:53 PM 89.1 °F 95.0 °F 71.1 °F 55% 30.00 in 10.0 mi ESE 13.8 mph - N/A   Scattered Clouds
2:53 PM 89.1 °F 96.0 °F 72.0 °F 57% 29.98 in 10.0 mi SE 16.1 mph - N/A   Scattered Clouds
3:53 PM 89.1 °F 95.0 °F 71.1 °F 55% 29.96 in 10.0 mi SE 17.3 mph - N/A   Scattered Clouds
4:53 PM 88.0 °F 93.8 °F 71.1 °F 57% 29.96 in 10.0 mi SE 16.1 mph - N/A   Scattered Clouds
5:53 PM 86.0 °F 91.5 °F 71.1 °F 61% 29.94 in 10.0 mi SE 16.1 mph - N/A   Mostly Cloudy
6:53 PM 84.9 °F 90.1 °F 71.1 °F 63% 29.94 in 10.0 mi SE 18.4 mph - N/A   Mostly Cloudy
7:53 PM 82.9 °F 87.5 °F 71.1 °F 67% 29.94 in 10.0 mi SSE 15.0 mph - N/A   Scattered Clouds
8:53 PM 82.0 °F 86.7 °F 72.0 °F 71% 29.95 in 10.0 mi SSE 11.5 mph - N/A   Scattered Clouds
9:53 PM 81.0 °F 85.8 °F 73.0 °F 77% 29.96 in 10.0 mi South 6.9 mph - N/A   Partly Cloudy
10:53 PM 81.0 °F 85.8 °F 73.0 °F 77% 29.97 in 10.0 mi South 8.1 mph - N/A   Partly Cloudy
11:53 PM 81.0 °F 85.8 °F 73.0 °F 77% 29.98 in 10.0 mi South 6.9 mph - N/A   Partly Cloudy